Location: Bieg
(49.3499°N, 10.3835°E)
Time: 12:36:12
(UTC+00:00)

Cosmos 1455 Rocket - Pass Details

Date: 23 May 2024
Orbit: 602 x 625 km, 82.5° (Epoch: 24 June)

Event Time Altitude Azimuth Distance (km) Brightness Sun altitude
Rises 02:37:30 0° 355° (N) 2,883 7.1 -6.9°
Reaches altitude 10° 02:39:49 10° 1° (N) 1,977 6.4 -6.6°
Maximum altitude 02:44:01 45° 75° (ENE) 847 4.3 -6.1°
Drops below altitude 10° 02:48:13 10° 148° (SSE) 1,975 5.6 -5.6°
Sets 02:50:31 0° 155° (SSE) 2,879 6.3 -5.3°
